Previsão horária em Almoloya

Hoje, 25 Janeiro, Segunda-feira

Tempo Temperatura Precipitação Vento Pressão Humidade
00:00 +16°C° 0 mm 1 m/s 625 mmHg 73%
01:00 +16°C° 0 mm 1 m/s 625 mmHg 75%
02:00 +16°C° 0 mm 1 m/s 624 mmHg 77%
03:00 +15°C° 0 mm 1 m/s 624 mmHg 78%
04:00 +15°C° 0 mm 1 m/s 624 mmHg 79%
05:00 +15°C° 0 mm 1 m/s 624 mmHg 80%
06:00 +16°C° 0 mm 1 m/s 625 mmHg 72%
07:00 +19°C° 0 mm 1 m/s 626 mmHg 65%
08:00 +21°C° 0 mm 1 m/s 626 mmHg 57%
09:00 +22°C° 0 mm 1 m/s 627 mmHg 50%
10:00 +24°C° 0 mm 2 m/s 627 mmHg 43%
11:00 +26°C° 0 mm 2 m/s 628 mmHg 36%
12:00 +26°C° 0 mm 2 m/s 627 mmHg 35%
13:00 +26°C° 0 mm 2 m/s 626 mmHg 34%
14:00 +27°C° 0 mm 3 m/s 625 mmHg 34%
15:00 +25°C° 0 mm 2 m/s 625 mmHg 38%
16:00 +24°C° 0 mm 2 m/s 624 mmHg 43%
17:00 +23°C° 0 mm 1 m/s 624 mmHg 47%
18:00 +21°C° 0 mm 1 m/s 624 mmHg 51%
19:00 +19°C° 0 mm 1 m/s 624 mmHg 55%
20:00 +18°C° 0 mm 1 m/s 624 mmHg 59%
21:00 +16°C° 0 mm 1 m/s 624 mmHg 59%
22:00 +16°C° 0 mm 1 m/s 624 mmHg 59%
23:00 +16°C° 0 mm 1 m/s 624 mmHg 59%

Amanhã, 26 Janeiro, Terça-feira

Tempo Temperatura Precipitação Vento Pressão Humidade
00:00 +16°C° 0 mm 1 m/s 624 mmHg 60%
01:00 +15°C° 0 mm 1 m/s 624 mmHg 60%
02:00 +15°C° 0 mm 1 m/s 623 mmHg 60%
03:00 +15°C° 0 mm 1 m/s 623 mmHg 60%
04:00 +15°C° 0 mm 1 m/s 624 mmHg 60%
05:00 +14°C° 0 mm 1 m/s 624 mmHg 60%
06:00 +16°C° 0 mm 1 m/s 624 mmHg 56%
07:00 +17°C° 0 mm 0 m/s 625 mmHg 51%
08:00 +19°C° 0 mm 0 m/s 626 mmHg 47%
09:00 +23°C° 0 mm 1 m/s 627 mmHg 43%
10:00 +24°C° 0 mm 1 m/s 627 mmHg 38%
11:00 +26°C° 0 mm 2 m/s 627 mmHg 34%
12:00 +26°C° 0 mm 2 m/s 626 mmHg 34%
13:00 +27°C° 0 mm 2 m/s 626 mmHg 34%
14:00 +27°C° 0 mm 3 m/s 625 mmHg 33%
15:00 +25°C° 0 mm 2 m/s 625 mmHg 38%
16:00 +24°C° 0 mm 2 m/s 624 mmHg 42%
17:00 +22°C° 0 mm 1 m/s 624 mmHg 46%
18:00 +21°C° 0 mm 1 m/s 624 mmHg 50%
19:00 +19°C° 0 mm 1 m/s 624 mmHg 53%
20:00 +18°C° 0 mm 1 m/s 624 mmHg 56%
21:00 +18°C° 0 mm 1 m/s 624 mmHg 56%
22:00 +16°C° 0 mm 2 m/s 624 mmHg 57%
23:00 +16°C° 0 mm 2 m/s 625 mmHg 57%

Depois de amanhã, 27 Janeiro, Quarta-feira

Tempo Temperatura Precipitação Vento Pressão Humidade
00:00 +16°C° 0 mm 2 m/s 624 mmHg 57%
01:00 +16°C° 0 mm 2 m/s 624 mmHg 57%
02:00 +16°C° 0 mm 1 m/s 624 mmHg 58%
03:00 +16°C° 0 mm 2 m/s 624 mmHg 58%
04:00 +15°C° 0 mm 2 m/s 624 mmHg 58%
05:00 +15°C° 0 mm 2 m/s 624 mmHg 58%
06:00 +18°C° 0 mm 1 m/s 625 mmHg 54%
07:00 +20°C° 0 mm 1 m/s 626 mmHg 49%
08:00 +20°C° 0 mm 0 m/s 627 mmHg 44%
09:00 +24°C° 0 mm 1 m/s 628 mmHg 40%
10:00 +26°C° 0 mm 1 m/s 628 mmHg 35%
11:00 +28°C° 0 mm 2 m/s 628 mmHg 31%
12:00 +28°C° 0 mm 2 m/s 628 mmHg 30%
13:00 +29°C° 0 mm 2 m/s 627 mmHg 30%
14:00 +29°C° 0 mm 2 m/s 626 mmHg 30%
15:00 +27°C° 0.1 mm 2 m/s 626 mmHg 36%
16:00 +25°C° 0.1 mm 1 m/s 625 mmHg 42%
17:00 +24°C° 0.1 mm 1 m/s 625 mmHg 48%
18:00 +22°C° 0 mm 1 m/s 625 mmHg 52%
19:00 +20°C° 0 mm 2 m/s 626 mmHg 55%
20:00 +18°C° 0 mm 2 m/s 626 mmHg 58%
21:00 +18°C° 0 mm 2 m/s 626 mmHg 60%
22:00 +18°C° 0 mm 2 m/s 627 mmHg 62%
23:00 +18°C° 0 mm 2 m/s 627 mmHg 64%

28 Janeiro, Quinta-feira

Tempo Temperatura Precipitação Vento Pressão Humidade
00:00 +17°C° 0 mm 2 m/s 627 mmHg 66%
01:00 +17°C° 0 mm 2 m/s 627 mmHg 68%
02:00 +16°C° 0 mm 2 m/s 626 mmHg 70%
03:00 +16°C° 0 mm 2 m/s 626 mmHg 70%
04:00 +15°C° 0 mm 2 m/s 626 mmHg 71%
05:00 +15°C° 0 mm 2 m/s 626 mmHg 72%
06:00 +16°C° 0 mm 1 m/s 627 mmHg 66%
07:00 +19°C° 0 mm 1 m/s 628 mmHg 60%
08:00 +20°C° 0 mm 1 m/s 629 mmHg 54%
09:00 +22°C° 0 mm 1 m/s 630 mmHg 49%
10:00 +25°C° 0 mm 1 m/s 630 mmHg 43%
11:00 +27°C° 0 mm 2 m/s 630 mmHg 37%
12:00 +27°C° 0 mm 2 m/s 629 mmHg 36%
13:00 +27°C° 0 mm 2 m/s 629 mmHg 35%
14:00 +28°C° 0 mm 2 m/s 628 mmHg 34%
15:00 +26°C° 0 mm 2 m/s 627 mmHg 37%
16:00 +25°C° 0 mm 1 m/s 627 mmHg 41%
17:00 +24°C° 0 mm 1 m/s 626 mmHg 44%
18:00 +22°C° 0 mm 1 m/s 627 mmHg 48%
19:00 +21°C° 0 mm 1 m/s 627 mmHg 51%
20:00 +18°C° 0 mm 2 m/s 627 mmHg 54%
21:00 +18°C° 0 mm 2 m/s 627 mmHg 56%
22:00 +17°C° 0 mm 2 m/s 627 mmHg 58%
23:00 +17°C° 0 mm 2 m/s 627 mmHg 61%

29 Janeiro, Sexta-feira

Tempo Temperatura Precipitação Vento Pressão Humidade
00:00 +16°C° 0 mm 2 m/s 627 mmHg 62%
01:00 +16°C° 0 mm 2 m/s 627 mmHg 63%
02:00 +16°C° 0 mm 2 m/s 626 mmHg 64%
03:00 +15°C° 0 mm 2 m/s 626 mmHg 65%
04:00 +15°C° 0 mm 2 m/s 626 mmHg 67%
05:00 +15°C° 0 mm 2 m/s 626 mmHg 68%
06:00 +18°C° 0 mm 1 m/s 627 mmHg 63%
07:00 +19°C° 0 mm 1 m/s 628 mmHg 57%
08:00 +19°C° 0 mm 0 m/s 629 mmHg 52%
09:00 +23°C° 0 mm 1 m/s 629 mmHg 47%
10:00 +25°C° 0 mm 1 m/s 629 mmHg 41%
11:00 +27°C° 0 mm 2 m/s 629 mmHg 35%
12:00 +27°C° 0 mm 2 m/s 628 mmHg 35%
13:00 +28°C° 0 mm 2 m/s 628 mmHg 34%
14:00 +28°C° 0 mm 2 m/s 627 mmHg 34%
15:00 +27°C° 0 mm 2 m/s 626 mmHg 38%
16:00 +25°C° 0 mm 2 m/s 626 mmHg 42%
17:00 +24°C° 0 mm 1 m/s 625 mmHg 45%
18:00 +22°C° 0 mm 1 m/s 625 mmHg 50%
19:00 +21°C° 0 mm 1 m/s 625 mmHg 54%
20:00 +19°C° 0 mm 1 m/s 625 mmHg 59%
21:00 +18°C° 0 mm 2 m/s 625 mmHg 59%
22:00 +17°C° 0 mm 2 m/s 626 mmHg 60%
23:00 +17°C° 0 mm 2 m/s 626 mmHg 61%

30 Janeiro, Sábado

Tempo Temperatura Precipitação Vento Pressão Humidade
00:00 +17°C° 0 mm 2 m/s 625 mmHg 61%
01:00 +17°C° 0 mm 2 m/s 625 mmHg 61%
02:00 +16°C° 0 mm 2 m/s 625 mmHg 62%
03:00 +16°C° 0 mm 1 m/s 625 mmHg 62%
04:00 +16°C° 0 mm 1 m/s 625 mmHg 63%
05:00 +16°C° 0 mm 1 m/s 625 mmHg 64%
06:00 +18°C° 0 mm 1 m/s 626 mmHg 59%
07:00 +20°C° 0 mm 1 m/s 627 mmHg 54%
08:00 +20°C° 0 mm 0 m/s 628 mmHg 49%
09:00 +24°C° 0 mm 1 m/s 628 mmHg 43%
10:00 +26°C° 0 mm 2 m/s 628 mmHg 38%
11:00 +28°C° 0 mm 2 m/s 628 mmHg 33%
12:00 +28°C° 0 mm 2 m/s 628 mmHg 32%
13:00 +28°C° 0 mm 2 m/s 627 mmHg 32%
14:00 +29°C° 0 mm 2 m/s 626 mmHg 31%
15:00 +27°C° 0.1 mm 2 m/s 626 mmHg 35%
16:00 +26°C° 0.1 mm 2 m/s 625 mmHg 40%
17:00 +25°C° 0.1 mm 1 m/s 624 mmHg 44%
18:00 +23°C° 0 mm 1 m/s 625 mmHg 48%
19:00 +21°C° 0 mm 1 m/s 625 mmHg 51%
20:00 +19°C° 0 mm 2 m/s 625 mmHg 55%
21:00 +18°C° 0 mm 2 m/s 625 mmHg 55%
22:00 +18°C° 0 mm 2 m/s 625 mmHg 55%
23:00 +18°C° 0 mm 2 m/s 625 mmHg 55%
Mostrar mais

Necessitamos do seu Consentimento

A Meteoprog e os seus Fornecedores de Serviços podem armazenar e aceder a dados pessoais como cookies, identificadores do dispositivo ou outras tecnologias semelhantes existentes no seu dispositivo e processar estes dados para personalizar conteúdos e anúncios, assim como funcionalidades nas redes sociais e análise de tráfego.

  • Armazenar e/ou aceder a informações no seu dispositivo

    Os cookies, identificadores do dispositivo ou outras informações podem ser armazenados ou acedidos no seu dispositivo, para os fins acima indicados.

  • Anúncios e conteúdos personalizados, medição de anúncios e conteúdos, dados sobre o público-alvo e desenvolvimento de produtos

    Os anúncios e os conteúdos podem ser personalizados com base num perfil. Podem ser adicionados dados adicionais para uma maior personalização dos anúncios e dos conteúdos. A eficácia dos anúncios e dos conteúdos pode ser medida. Podem ser obtidas informações sobre o público que visualizou os anúncios e os conteúdos. Estes dados podem ser usados para desenvolver ou melhorar sistemas, softwares ou a experiência do utilizador.

Ao clicar em "Eu concordo”, permitirá o uso de cookies, identificadores do dispositivo e web beacons mencionados ou outras tecnologias semelhantes. As configurações do navegador do seu dispositivo podem ser alteradas.

Para certos fins, podem ser invocados interesses legítimos ao invés de consentimento. Pode ler mais informação sobre este assunto na nossa Política de Privacidade e Cookies.